Location: M?digepalle
(16.1753°N, 80.3496°E)
Time: 12:35:31
(UTC+00:00)

Geosat - Pass Details

Date: 29 October 2020
Orbit: 763 x 766 km, 108.0° (Epoch: 23 November)

Event Time Altitude Azimuth Distance (km) Brightness Sun altitude
Rises 12:54:37 0° 20° (NNE) 3,224 6.9 -11.4°
Reaches altitude 10° 12:56:54 10° 19° (NNE) 2,297 6.2 -11.9°
Maximum altitude 13:01:54 80° 293° (WNW) 779 4.1 -13.1°
Drops below altitude 10° 13:06:54 10° 206° (SSW) 2,294 7.0 -14.3°
Sets 13:09:10 0° 205° (SSW) 3,219 7.8 -14.8°
